This is the latest recevied weather packets stored in our database for station/object KV4OP. If no packets are shown the sender has not sent any weather packets the latest 10 day(s).
| Time | Temp. | Humidity | Pressure | Rain* | Wind** | Luminosity | Snow |
|---|---|---|---|---|---|---|---|
| 1778129404 | 23.33° C | 76% | 1016.8 hPa | 0 mm | - | - | - |
| 1778129106 | 23.33° C | 75% | 1016.8 hPa | 0 mm | - | - | - |
| 1778128802 | 23.33° C | 75% | 1017 hPa | 0 mm | - | - | - |
| 1778128502 | 22.78° C | 77% | 1016.9 hPa | 0 mm | - | - | - |
| 1778128202 | 22.78° C | 77% | 1017 hPa | 0 mm | - | - | - |
| 1778127961 | 22.22° C | 75% | 1016.9 hPa | 0 mm | - | - | - |
| 1778127659 | 22.78° C | 74% | 1017 hPa | 0 mm | - | - | - |
| 1778127362 | 22.78° C | 74% | 1017 hPa | 0 mm | - | - | - |
| 1778127057 | 22.78° C | 73% | 1017 hPa | 0 mm | - | - | - |
| 1778126757 | 23.33° C | 72% | 1016.9 hPa | 0 mm | - | - | - |
| 1778126455 | 23.33° C | 73% | 1016.9 hPa | 0 mm | - | - | - |
| 1778126156 | 23.33° C | 74% | 1016.9 hPa | 0 mm | - | - | - |
| 1778125855 | 23.33° C | 75% | 1016.9 hPa | 0 mm | - | - | - |
| 1778125566 | 23.33° C | 73% | 1016.9 hPa | 0 mm | - | - | - |
| 1778125254 | 23.33° C | 72% | 1017.1 hPa | 0 mm | - | - | - |
| 1778124954 | 23.33° C | 71% | 1017.1 hPa | 0 mm | - | - | - |
| 1778124655 | 23.33° C | 72% | 1017.2 hPa | 0 mm | - | - | - |
| 1778124355 | 23.89° C | 71% | 1016.9 hPa | 0 mm | - | - | - |
| 1778124054 | 23.89° C | 71% | 1016.8 hPa | 0 mm | - | - | - |
| 1778123753 | 23.89° C | 71% | 1016.9 hPa | 0 mm | - | - | - |
| 1778123453 | 23.89° C | 71% | 1017 hPa | 0 mm | - | - | - |
| 1778123153 | 24.44° C | 70% | 1017 hPa | 0 mm | - | - | - |
| 1778122861 | 24.44° C | 69% | 1016.8 hPa | 0 mm | - | - | - |
| 1778122553 | 24.44° C | 69% | 1016.8 hPa | 0 mm | - | - | - |
| 1778122252 | 24.44° C | 69% | 1016.9 hPa | 0 mm | - | - | - |
* Rain latest hour (hover to see other rain measurements)
** Current wind speed in m/s (hover to see current wind gust speed)